OneWeb SL0366

operational
NORAD ID: 49292 Int'l Des: 2021-090 Owner: ONEWEBN Country: UK Constellation: oneweb
LEOCIRCULARPOLARONEWEB_TYPE

About OneWeb SL0366

Description loading...

Live Position

Loading 3D Globe...

Upcoming Passes

Altitude History

Altitude vs Time

uPlot chart will show altitude changes over time

Two-Line Element Set

1 49292U 21090P 25348.92638558 .00000218 00000-0 55484-3 0 9996
2 49292 87.8986 326.4295 0001751 86.4969 273.6361 13.14503195203354
Epoch: Dec 14, 2025 • Age: 19 hours

Current Status

Altitude 1214.7 km
Velocity 7.25 km/s
Sub-Earth Point 58.54°N, 161.49°E
Launch Date Oct 14, 2021
Age 4.1 years
Type internet

Technical Details

Classification Payload
Mass 148.00 kg
Dry Mass 140.00 kg
Total Mass 148.00 kg
Length 1.30 m
Diameter 1.00 m
Span 5.00 m
Shape Trapezoid+2 pan
Manufacturer ONEWUS
Bus Type ARROW
Phase Status In Orbit
Owner/State ONEWEBN/UK

Large Constellations

Loading constellations...